Location: Newark
(41.8083°N, 72.2500°W)
Time: 11:07:13
(UTC+00:00)

Altair - Pass Details

Date: 07 December 2021
Orbit: 1501 x 1683 km, 47.2° (Epoch: 27 January)

Event Time Altitude Azimuth Distance (km) Brightness Sun altitude
Rises 22:03:06 0° 274° (W) 4,757 11.3 -8.3°
Reaches altitude 10° 22:06:17 10° 278° (W) 3,749 10.6 -8.9°
Maximum altitude 22:15:39 63° 359° (N) 1,675 7.6 -10.5°
Enters shadow 22:23:45 14° 78° (ENE) 3,346 8.6 -11.9°
